Theta_e
343 340 337 334 334 334 336 337 337 337 337 336 335 331 327 326 325 326 328 329 328 327 326 326 326 326 325 323 324 327 330 331 330 330 331 332 332 333 332 331 329 326 323 321 321 321 321 320 318 317 319 323 324 324 323 322 319 316 315 313 313 314 313 314 314 314 315 315 315 314 313 312 311 310 309 308 309 310 310 311 312 313 314 315 315
342 341 338 334 333 334 335 337 338 337 337 336 335 331 328 327 327 328 330 331 329 327 323 321 320 320 320 321 324 327 328 328 327 327 328 329 330 330 329 328 326 325 322 321 321 320 320 320 318 316 317 319 322 323 321 320 317 315 314 313 313 313 313 313 313 313 314 314 314 315 314 313 311 310 309 309 309 309 310 310 311 312 313 314 314
342 340 337 334 333 333 334 335 337 337 337 337 335 331 328 329 329 329 331 332 331 327 321 317 317 317 317 318 319 321 321 320 320 320 321 324 326 325 324 323 321 320 320 320 320 319 319 319 317 317 317 318 320 321 320 318 316 314 314 313 313 313 314 313 313 313 313 314 315 315 315 314 311 310 309 309 309 309 310 310 311 311 312 313 313
343 341 337 334 333 333 332 334 336 337 337 336 335 331 329 330 330 330 331 332 333 330 324 319 319 319 318 317 317 318 317 317 317 317 318 322 325 324 322 321 319 318 317 318 318 319 319 318 317 316 317 318 319 319 319 317 314 314 314 313 313 313 313 313 313 313 313 314 314 315 315 314 312 311 310 309 308 309 309 310 310 311 312 313 313
343 341 338 335 333 332 332 333 334 337 337 336 335 331 330 331 331 331 331 332 332 332 329 324 324 324 323 321 321 321 321 320 319 319 319 323 326 327 326 324 321 319 317 317 319 321 319 317 317 317 317 318 318 318 317 315 315 314 314 314 314 313 314 314 313 313 313 313 313 315 315 315 313 311 311 309 309 310 310 309 309 310 311 312 313
343 340 338 335 334 332 332 332 333 336 337 337 335 331 330 332 333 333 333 332 332 332 332 330 329 328 327 325 325 326 326 325 324 323 324 327 329 331 331 328 324 321 320 317 319 324 324 320 319 321 319 316 317 317 316 314 314 314 314 314 314 315 314 314 313 313 313 313 313 314 314 314 314 312 312 311 309 310 309 310 309 310 311 311 312
342 340 338 336 334 332 332 332 333 335 337 336 336 333 330 332 334 334 334 333 333 332 332 331 330 329 328 328 327 328 328 328 329 329 330 332 333 333 333 331 328 324 324 321 318 322 326 322 319 322 320 318 318 314 315 315 315 315 314 315 315 316 315 314 313 313 313 312 313 313 314 313 314 313 312 311 310 310 309 309 309 309 310 311 311
341 339 337 335 333 333 332 332 333 335 337 336 336 334 331 332 333 335 334 333 333 333 332 332 331 330 329 329 329 329 330 330 332 332 333 334 334 335 335 334 331 327 327 324 319 319 322 322 318 317 319 321 322 316 315 316 315 315 316 316 316 317 316 314 313 313 313 312 313 313 313 313 314 313 313 312 311 310 310 309 309 309 310 310 310
340 338 336 334 333 333 332 332 332 335 337 336 337 336 333 332 333 335 335 333 332 332 333 333 332 331 330 330 329 330 331 332 332 333 333 334 334 335 334 335 333 330 329 324 320 319 321 326 321 316 323 327 327 324 320 318 315 316 317 317 318 319 318 315 314 314 313 313 312 313 312 313 313 313 313 313 311 311 310 309 309 309 309 310 310
339 337 336 334 334 333 332 332 334 336 337 337 337 336 335 334 334 334 335 333 331 331 332 333 333 333 332 331 330 330 331 332 333 333 333 333 333 334 334 334 333 331 328 323 320 320 319 326 325 320 327 330 329 325 321 317 316 316 316 317 318 321 321 319 317 315 315 314 313 312 312 313 313 313 314 313 312 311 309 309 309 310 310 310 309
338 336 335 334 334 333 332 332 335 337 337 336 336 337 336 335 335 335 334 332 330 330 331 333 334 334 334 333 332 331 332 333 333 333 332 333 332 331 330 328 328 326 323 321 321 321 318 321 324 323 326 327 326 322 318 316 316 317 316 318 319 321 324 324 321 319 317 316 315 313 312 312 313 313 313 314 312 311 310 309 309 309 309 308 309
336 335 334 336 335 333 332 332 335 337 336 336 336 337 337 336 335 333 332 330 329 328 330 333 335 335 334 334 333 333 333 333 332 331 331 330 328 325 324 323 323 322 321 322 321 322 322 319 320 320 322 322 322 319 318 317 317 318 318 320 321 321 324 324 324 322 319 317 315 313 312 312 312 313 313 314 313 312 311 310 309 308 309 309 309
335 334 334 336 334 332 332 332 334 336 336 336 336 336 336 335 333 331 330 329 327 328 330 333 335 335 334 334 334 333 333 332 330 328 328 326 325 324 323 323 323 323 323 325 324 323 323 322 320 318 319 322 322 321 320 321 321 321 322 323 323 321 323 323 323 323 321 318 315 313 312 312 311 312 313 313 314 313 311 309 309 308 308 309 308
335 334 334 335 334 333 333 333 333 334 335 335 336 336 335 333 331 329 328 327 327 329 331 333 335 335 334 333 332 331 330 329 326 325 326 326 326 325 324 324 324 325 328 329 327 324 325 323 321 319 319 322 323 324 325 325 324 324 324 325 326 324 323 324 323 323 321 318 315 313 312 312 311 312 312 313 314 313 312 310 309 308 308 309 309
335 333 333 333 332 332 331 332 332 333 334 334 335 333 331 330 328 327 326 327 328 330 332 334 334 335 333 331 329 327 326 325 324 325 326 327 326 326 325 325 324 325 329 331 326 324 325 323 321 320 319 321 324 326 328 328 327 327 327 326 327 327 325 323 324 323 322 320 317 315 313 312 311 312 312 312 313 314 312 311 309 308 308 308 308
334 333 333 332 330 329 329 329 330 331 331 332 332 329 328 327 326 325 325 327 328 330 332 333 333 331 329 326 325 324 325 324 325 326 327 328 327 327 327 326 325 325 326 328 325 322 321 320 320 320 319 320 323 327 328 330 330 329 330 328 327 328 327 325 324 324 324 323 321 318 314 312 311 311 311 311 312 313 313 312 310 309 308 308 308
333 333 332 330 328 327 328 328 328 329 328 328 329 327 325 324 324 324 324 326 327 329 329 329 327 326 325 324 325 325 326 327 328 328 328 329 328 328 328 328 327 326 325 325 324 322 319 316 317 318 319 319 323 327 329 330 331 330 331 330 329 329 329 327 326 325 324 325 324 321 316 312 312 312 311 311 311 312 313 313 311 309 308 308 308
333 332 331 329 327 326 327 328 328 327 326 325 325 325 324 323 322 323 325 325 325 325 325 325 324 323 324 324 325 326 327 328 328 329 329 329 329 329 329 329 328 326 325 325 324 323 319 315 314 316 317 318 322 327 330 330 331 331 331 331 330 329 329 329 327 325 324 324 323 322 318 314 314 313 312 311 310 312 312 313 311 310 308 308 308
333 331 330 329 326 326 327 328 327 324 324 324 324 324 324 324 323 323 325 325 322 323 323 323 323 323 323 324 325 326 326 327 327 328 328 328 327 328 330 330 329 327 325 325 324 323 321 317 315 315 316 317 319 325 330 331 331 332 331 332 331 330 330 330 328 326 324 324 323 322 320 316 315 315 313 312 311 310 311 312 312 310 309 308 308
332 331 330 328 326 326 327 327 326 324 324 324 325 325 325 325 324 325 325 324 323 323 323 322 322 322 323 324 325 326 325 326 326 327 326 326 326 327 329 330 329 327 327 327 325 323 323 320 316 315 315 316 317 322 328 330 331 332 332 331 331 331 331 330 328 326 325 325 324 322 321 318 316 316 315 313 311 310 311 311 312 311 309 309 308
332 331 330 328 328 328 327 328 327 325 325 325 325 326 326 326 327 329 327 325 325 324 324 323 323 324 324 325 325 326 326 327 327 328 327 327 326 326 328 330 329 327 327 328 326 324 323 323 320 317 315 315 315 318 324 329 330 331 332 331 331 331 331 330 329 327 326 326 325 324 322 321 318 316 315 313 311 310 310 310 311 311 310 309 308
332 332 330 330 330 328 328 329 328 326 327 326 326 326 327 329 329 330 329 327 326 326 326 326 326 325 326 326 327 327 328 327 328 328 328 328 327 327 328 329 330 328 327 327 326 325 324 323 322 321 317 315 315 316 320 325 329 331 331 331 331 331 330 330 329 328 327 326 326 325 324 323 321 318 315 313 311 311 310 310 311 311 311 309 309
332 332 330 330 331 329 329 328 327 327 328 327 326 326 328 329 328 329 329 328 329 328 327 328 328 328 328 328 328 329 329 328 328 328 328 328 328 328 329 330 330 329 328 327 326 325 324 323 322 322 320 317 316 316 317 321 327 331 331 331 331 330 330 330 330 328 327 327 326 326 325 324 323 318 313 311 311 311 310 310 310 311 311 309 309
333 331 330 331 331 330 329 327 327 328 328 327 327 327 328 328 327 328 328 328 330 330 328 328 329 329 329 329 329 329 329 329 329 329 329 329 328 329 330 330 330 330 330 328 327 327 325 324 323 321 321 320 318 318 318 320 325 330 330 331 331 330 330 329 329 328 327 327 326 326 325 325 325 320 312 309 309 310 311 310 310 310 310 309 309
332 331 331 332 332 331 329 327 327 328 328 328 327 327 327 328 328 328 328 328 329 329 328 328 329 329 329 329 329 329 329 329 330 329 329 329 329 329 329 329 330 330 329 329 328 328 326 324 322 321 320 321 319 318 319 320 323 328 330 330 330 330 330 329 329 328 328 327 326 326 326 325 326 321 313 309 308 309 311 311 310 310 310 309 309
332 330 331 332 332 331 330 329 329 328 328 328 328 328 327 328 328 328 329 329 329 328 328 328 328 329 329 329 329 329 329 330 330 330 330 330 329 329 329 329 329 329 329 328 328 327 327 325 322 321 321 321 320 319 319 320 322 326 328 330 330 329 329 330 329 329 328 328 327 326 325 326 327 321 313 309 308 308 310 311 311 310 309 310 309
332 330 331 333 333 331 329 329 329 328 329 328 328 328 328 329 329 329 329 329 329 329 328 328 329 329 329 329 329 329 329 330 330 330 330 330 329 329 329 329 329 329 328 327 326 325 326 326 323 322 323 322 320 319 319 319 321 324 326 328 329 328 328 328 329 329 328 328 327 326 326 327 327 322 314 310 308 307 309 310 311 310 309 309 309
332 331 332 333 332 331 330 329 328 329 329 329 329 329 330 329 329 330 329 329 329 330 329 329 329 329 329 329 329 329 330 330 330 331 331 331 330 329 329 329 328 328 327 326 325 323 324 326 324 323 325 323 320 319 319 320 321 323 325 327 328 328 328 327 328 329 329 328 327 326 327 327 327 323 315 311 309 307 307 308 310 310 309 309 309
333 331 332 332 332 331 331 329 328 329 330 330 330 330 330 331 331 332 332 332 332 332 332 332 332 331 330 330 330 331 331 331 331 331 331 331 330 329 329 330 329 328 327 327 324 323 324 325 326 326 327 324 320 318 319 320 322 322 324 327 327 327 328 327 327 329 329 328 327 328 329 328 328 323 315 312 311 308 307 307 308 309 309 309 308
334 332 332 332 332 332 331 329 328 329 330 332 332 333 334 334 334 335 335 334 334 334 334 334 334 334 333 332 333 333 333 333 332 332 332 331 330 329 329 329 329 328 328 327 325 324 324 326 328 328 327 325 320 318 320 321 322 322 323 326 327 326 327 326 326 328 329 328 329 330 330 330 329 324 317 314 313 311 309 307 307 309 309 307 308
335 333 332 332 332 333 332 330 329 330 332 335 335 335 335 335 334 334 335 335 335 335 334 334 335 334 334 333 333 333 333 333 333 332 332 331 330 330 329 329 329 328 328 328 326 325 325 326 329 329 328 325 322 322 324 324 323 321 323 325 326 326 325 325 326 327 328 329 330 331 331 330 329 326 322 318 316 313 312 310 307 306 307 306 306
334 332 333 334 334 334 334 333 332 334 335 334 334 333 333 332 332 332 333 333 333 333 332 332 332 331 331 332 332 332 332 332 332 333 332 330 329 330 330 329 329 329 329 329 328 327 326 327 329 329 329 326 325 326 327 327 326 323 323 325 326 325 324 325 326 328 328 329 329 330 331 331 329 328 325 322 321 318 315 313 309 307 307 306 305
329 330 334 335 335 336 336 336 336 336 334 332 331 332 331 330 331 331 332 332 331 331 331 331 330 330 330 331 331 332 332 331 330 331 331 330 329 330 329 330 329 329 329 329 329 329 328 328 328 329 329 327 326 327 327 327 327 326 324 324 325 326 325 326 327 327 327 328 328 329 330 330 328 327 326 326 325 325 322 319 315 312 311 309 307
329 331 336 336 337 337 336 337 336 335 332 330 331 330 330 330 330 330 330 330 330 330 330 330 330 330 330 330 330 331 331 330 330 331 330 330 329 329 329 329 329 329 329 329 329 329 329 329 329 329 329 327 327 327 327 327 327 326 326 325 325 325 325 326 327 327 327 327 327 328 330 330 328 327 327 327 327 327 326 324 320 317 315 312 311
333 332 336 337 337 336 336 335 333 332 330 330 329 328 328 328 328 328 328 328 329 329 329 329 330 329 329 329 329 330 330 330 330 330 329 329 329 328 329 328 328 329 329 329 329 329 329 330 329 329 329 327 326 326 326 326 326 326 326 326 326 326 326 326 326 326 326 327 327 327 329 330 329 328 328 328 327 327 327 327 325 321 320 318 317
333 330 334 334 334 335 334 333 330 330 330 329 328 327 326 326 326 326 325 325 326 326 326 326 327 327 328 328 329 330 330 330 330 330 329 328 328 328 328 327 328 329 328 328 328 328 329 330 330 329 329 328 327 326 326 326 325 325 325 326 326 325 326 326 326 326 326 325 326 327 328 330 330 328 328 328 328 328 327 327 327 326 325 324 323
328 327 331 330 331 334 332 332 330 330 329 328 327 326 326 325 324 324 324 324 323 323 322 323 325 326 327 327 329 329 328 328 328 328 328 328 327 328 328 326 328 328 326 327 328 329 329 329 330 329 329 329 328 327 327 326 325 325 325 325 325 325 325 325 326 326 326 325 325 326 327 329 329 329 328 328 328 328 327 327 327 327 326 327 327
323 324 330 328 330 332 331 331 330 329 329 328 327 325 323 322 322 323 324 323 322 322 322 322 322 324 325 325 327 328 327 327 328 328 328 329 328 328 327 327 327 326 326 327 328 329 328 328 329 329 329 329 328 328 328 327 327 326 325 325 325 325 324 325 325 326 326 326 325 325 325 327 328 329 328 328 328 328 328 328 327 327 327 327 327
321 323 328 327 329 331 331 332 330 330 329 328 326 322 320 318 318 320 322 323 321 321 322 322 322 322 323 323 324 325 324 326 326 327 327 328 328 327 327 327 326 326 326 326 326 328 327 327 328 329 329 329 328 329 328 328 328 325 322 323 325 325 325 325 325 326 326 326 326 326 326 326 327 327 328 328 328 329 328 328 328 328 328 327 328
322 322 326 326 328 330 332 331 330 330 328 326 321 318 317 315 315 316 320 321 320 320 322 322 322 321 320 320 320 320 321 323 324 325 326 327 327 327 327 327 326 326 326 325 324 326 326 326 326 328 329 329 328 328 328 328 326 322 320 322 325 326 326 327 326 327 326 326 326 326 327 326 326 326 326 327 328 328 328 328 328 328 328 328 328
325 323 325 327 327 330 332 331 330 330 328 324 318 314 315 313 314 317 319 320 319 320 321 321 321 320 320 320 319 320 322 323 324 324 325 326 327 327 327 327 326 326 326 325 325 326 327 326 326 328 329 328 327 327 328 327 325 323 321 322 325 325 326 326 326 326 326 326 327 326 327 327 327 327 326 327 327 328 328 328 328 328 328 328 328
325 324 325 327 328 330 332 331 330 329 328 325 318 314 314 313 315 317 318 318 319 320 320 320 319 318 319 317 316 320 323 324 324 324 324 325 326 326 326 326 326 326 326 326 327 328 328 326 326 327 328 328 328 327 327 327 326 325 324 323 324 324 325 325 325 325 325 326 326 326 327 326 327 327 326 327 327 328 328 328 329 329 328 328 328
325 324 325 327 329 331 332 332 330 329 328 324 317 313 313 313 314 315 317 317 318 318 317 317 316 314 313 311 312 318 323 323 323 323 323 324 324 324 325 324 325 325 326 326 327 328 327 326 326 326 327 327 327 327 327 327 327 327 327 325 324 325 325 325 325 325 325 325 325 326 327 327 326 326 326 326 326 327 327 328 329 329 329 328 328
326 324 323 325 329 330 332 332 330 329 328 321 314 314 313 313 313 314 314 315 316 315 313 312 313 312 310 309 310 313 317 319 320 321 321 322 322 323 323 323 323 323 324 325 326 326 325 325 325 325 326 327 327 327 327 327 327 327 327 326 326 326 326 326 325 325 325 324 324 326 327 326 326 325 325 326 326 326 327 327 328 328 328 328 327
328 325 324 327 329 330 332 331 329 329 325 317 313 314 314 314 313 313 313 313 313 312 310 310 311 311 310 309 309 309 311 314 315 317 318 319 319 318 319 319 320 320 321 322 323 324 324 324 324 324 325 325 326 326 327 327 327 327 327 326 326 326 326 326 326 325 325 324 324 324 324 324 325 325 325 325 325 325 325 325 326 325 326 327 326
330 326 325 328 330 330 331 330 329 328 322 315 313 314 314 314 314 313 313 313 312 310 308 309 309 309 308 308 308 308 310 314 315 316 317 317 315 315 315 316 318 318 319 320 322 323 323 323 323 323 324 325 325 326 326 327 327 327 327 327 326 326 325 325 325 325 326 326 325 325 325 324 324 324 323 323 323 324 324 325 324 323 324 325 325
331 327 325 329 329 330 330 329 328 327 320 314 313 314 315 315 314 313 313 313 312 310 308 307 307 307 307 306 307 308 311 315 316 316 317 317 316 317 318 319 320 320 321 322 322 323 322 320 319 318 320 323 324 324 325 326 326 326 326 326 326 325 325 325 325 325 325 326 326 326 326 325 324 323 323 323 323 323 323 323 322 321 323 325 325
330 327 326 329 330 329 329 328 328 325 318 314 312 314 315 315 313 312 313 314 314 311 308 307 307 306 306 306 306 307 311 314 316 316 317 318 318 319 319 321 322 322 322 322 322 322 320 319 317 313 315 322 324 324 325 325 325 325 325 325 326 326 325 325 325 324 324 325 324 323 323 322 323 324 324 325 324 323 322 322 323 323 324 324 324
328 327 327 330 330 330 329 328 327 323 316 313 312 314 315 314 314 313 315 316 315 313 309 307 307 306 306 306 306 307 309 313 316 316 316 318 318 318 317 319 320 321 321 321 321 320 316 315 313 310 314 322 324 324 325 325 325 326 325 325 324 325 325 324 324 324 324 323 320 319 319 318 320 322 322 324 324 323 322 322 323 323 323 322 322
328 328 329 330 329 328 328 326 327 322 314 312 312 313 315 314 314 315 316 316 314 312 309 307 307 307 306 306 306 306 307 310 313 314 316 318 317 316 316 315 316 318 319 318 316 313 309 307 307 310 317 322 324 324 325 325 325 325 325 325 325 325 325 324 323 323 323 322 318 315 316 317 318 319 320 321 322 323 322 322 322 322 322 322 322
328 329 330 329 327 326 326 326 326 320 313 311 313 314 316 314 314 315 316 315 313 310 309 308 307 307 306 306 305 305 306 307 309 312 315 317 317 315 313 310 309 311 312 310 308 306 304 303 305 311 317 320 320 320 321 323 324 324 324 324 324 324 323 322 322 322 322 322 319 316 315 316 317 318 318 319 319 319 319 320 321 321 322 321 321
Wind_Speed
28 26 25 25 23 23 22 21 21 20 19 17 15 12 11 11 13 14 16 17 17 17 17 17 17 17 16 17 17 17 16 15 15 14 13 13 14 13 12 11 10 9 9 9 8 8 9 10 11 12 12 13 13 13 13 12 12 12 14 17 20 21 20 20 19 19 19 20 19 19 18 17 18 18 18 19 19 20 19 19 20 20 21 21 21
30 27 26 25 24 23 22 21 21 21 20 19 16 14 13 12 13 13 14 15 16 17 17 17 17 18 17 17 17 17 16 15 14 14 13 13 13 13 13 12 11 10 9 9 9 8 9 9 10 11 12 12 13 13 13 12 12 13 17 18 19 20 19 19 18 18 19 19 18 18 17 17 17 17 18 19 19 20 19 19 19 20 21 21 22
30 28 25 24 22 20 20 20 21 21 20 20 18 15 14 13 13 13 13 14 15 16 17 17 17 17 17 17 17 16 16 15 14 14 13 13 12 13 13 12 11 9 8 9 9 8 8 9 10 11 11 12 12 13 13 12 13 16 18 18 19 19 18 17 17 18 18 18 18 18 17 17 17 16 17 18 19 19 19 18 18 19 20 20 21
29 28 26 25 22 19 18 18 19 20 20 20 19 16 15 14 14 13 13 13 14 15 15 16 16 16 16 16 16 15 15 14 14 13 12 12 11 11 11 11 10 9 8 9 9 9 9 9 10 11 11 12 12 13 13 12 14 17 18 18 18 18 17 17 17 17 18 18 18 18 17 17 17 16 16 17 17 18 18 19 19 19 19 19 20
29 28 27 26 24 20 18 17 18 18 19 20 19 17 15 15 14 13 13 13 13 14 14 15 15 15 15 15 15 14 13 13 13 12 12 12 11 11 10 10 9 8 7 7 8 8 9 9 10 11 12 12 13 13 13 13 15 16 17 17 18 18 17 16 16 17 17 18 18 18 17 17 17 16 15 16 16 17 18 19 19 19 18 18 19
28 27 27 27 25 23 20 18 18 19 19 19 18 17 15 15 14 13 12 13 13 14 14 14 14 13 13 13 13 13 13 13 13 12 12 13 12 11 10 9 8 7 7 6 7 9 9 10 10 11 11 12 13 13 13 13 15 15 16 16 17 17 16 15 15 16 17 17 17 17 17 16 16 16 15 15 15 16 17 18 18 18 18 18 19
28 27 27 26 25 24 23 20 19 20 20 20 18 17 16 15 13 12 12 12 13 13 14 13 13 13 13 13 12 12 12 13 13 13 13 13 12 11 10 9 8 7 6 7 6 8 9 10 10 11 11 12 12 13 13 13 14 14 15 15 16 16 15 15 14 15 16 16 17 16 16 15 15 16 15 14 14 15 16 17 17 17 17 17 18
27 27 27 26 25 23 22 21 20 21 22 21 19 17 16 15 13 12 11 11 11 12 13 13 13 13 13 13 12 12 12 12 12 12 12 12 11 10 10 9 8 6 5 8 8 7 8 9 10 11 12 12 12 13 14 13 13 14 14 14 15 15 15 15 14 14 15 15 15 15 15 15 14 15 15 14 13 13 14 15 16 16 17 17 18
27 26 26 25 24 22 20 19 20 22 23 22 20 18 16 15 14 12 11 10 11 11 12 13 13 13 13 12 12 12 11 11 11 11 11 10 9 8 8 7 6 5 4 6 8 8 8 8 9 11 12 12 11 12 13 13 12 13 14 15 15 16 15 15 14 14 14 14 14 14 14 14 13 13 13 13 13 12 12 13 14 15 17 17 17
26 26 25 24 23 21 19 19 21 23 24 23 21 18 17 15 14 12 11 11 11 12 12 13 13 13 12 12 12 12 11 11 11 10 9 9 8 7 7 6 5 4 3 4 6 8 8 8 8 11 12 11 12 12 12 11 11 11 13 16 15 15 15 15 14 13 13 13 12 12 12 12 12 12 12 12 12 11 11 12 13 14 16 16 17
27 26 24 23 21 20 20 20 21 23 24 23 21 19 17 15 14 12 11 11 12 12 13 13 14 14 13 12 12 12 11 11 10 9 9 8 7 7 6 5 4 3 3 4 5 7 7 7 8 10 12 12 12 12 12 11 10 9 10 15 16 15 15 14 14 13 12 13 12 11 11 11 11 11 11 11 11 10 10 11 12 13 14 16 16
27 25 23 21 20 19 19 20 22 23 22 21 20 19 17 15 13 13 12 12 12 13 13 14 15 15 13 13 12 11 11 10 9 9 9 8 7 7 6 5 4 4 4 4 5 7 7 6 6 7 10 11 11 12 12 10 9 8 8 12 15 14 13 13 13 12 11 12 11 10 10 10 10 10 10 10 10 10 10 10 11 12 13 15 15
27 25 23 20 19 18 18 19 21 22 21 20 19 17 16 14 13 13 13 12 13 13 13 14 15 15 14 13 12 11 10 9 8 8 8 8 8 7 7 6 5 4 4 5 5 7 8 7 6 6 9 11 11 11 11 10 9 8 7 9 14 12 11 11 12 11 10 11 10 10 9 9 9 9 9 9 9 9 9 9 9 11 13 13 14
27 25 22 20 19 17 17 18 19 20 20 19 18 16 15 14 13 13 13 13 13 13 13 14 15 15 14 13 12 10 10 9 8 8 8 8 8 7 7 6 6 5 5 6 5 7 9 8 7 7 9 11 12 12 12 11 9 8 7 7 11 10 9 9 11 11 11 11 10 9 9 8 8 8 8 8 8 8 9 8 8 9 11 12 13
26 24 22 21 19 17 16 16 16 17 18 18 17 15 14 13 13 12 12 13 12 13 14 15 15 14 13 12 11 10 9 9 8 7 7 8 8 7 7 6 6 6 7 6 5 7 9 9 8 8 9 11 12 13 12 11 10 8 8 6 9 10 8 7 9 11 11 11 9 8 8 7 7 7 7 7 7 7 8 7 7 7 9 11 12
25 23 23 21 20 18 17 16 16 16 17 17 16 15 14 13 12 12 13 13 13 14 14 14 14 13 12 11 11 10 9 8 7 7 7 7 7 7 6 6 6 6 6 6 6 7 7 8 7 8 9 12 14 14 13 12 10 9 8 5 7 9 8 7 7 9 10 10 9 8 7 7 6 6 6 6 6 6 6 6 6 6 7 9 11
24 23 23 22 21 20 19 18 17 16 17 17 16 15 14 13 12 13 14 14 14 14 14 14 13 13 12 11 11 9 8 7 7 6 6 6 6 6 6 5 5 5 5 6 6 6 6 6 7 8 9 12 15 15 14 13 11 10 8 6 6 8 8 7 7 8 9 9 8 7 6 5 5 5 5 5 5 5 5 5 5 5 6 7 9
24 23 22 22 22 21 21 20 20 19 19 19 18 16 15 14 14 14 14 15 14 14 14 13 13 13 12 11 10 8 7 6 6 6 5 4 4 5 5 5 5 5 5 6 6 6 6 6 6 8 10 12 15 17 16 14 12 11 9 7 5 7 8 7 7 8 9 9 7 6 5 4 4 4 4 3 3 3 4 4 3 4 4 5 7
24 24 23 22 22 22 23 22 22 21 21 21 19 18 17 16 16 15 15 15 15 14 14 13 13 12 12 10 9 8 6 6 6 5 4 4 4 4 5 5 5 5 5 6 6 6 6 6 6 7 9 10 14 16 17 15 14 12 10 7 5 6 8 8 7 8 8 8 7 6 5 4 3 3 3 2 2 2 3 3 3 2 3 4 5
26 25 22 22 22 22 23 22 23 23 22 22 20 20 19 17 16 16 15 15 15 14 13 12 12 12 11 9 8 7 6 6 5 4 4 4 4 4 4 5 5 6 6 6 6 6 6 6 6 6 6 8 11 15 17 16 14 13 11 7 5 6 8 8 8 8 8 8 7 6 5 4 2 2 2 2 1 1 1 2 2 1 1 2 3
27 26 23 23 22 22 22 22 23 23 23 22 21 20 19 18 16 15 15 14 14 13 12 11 11 11 10 8 7 6 5 4 3 2 2 2 3 3 4 4 5 6 6 6 5 5 5 5 5 5 5 6 8 13 16 16 15 13 11 8 5 6 9 9 8 8 9 8 7 6 5 3 2 1 1 2 1 1 1 1 1 1 0 1 1
28 27 25 24 22 22 22 21 22 22 22 21 20 20 19 18 16 16 14 14 13 13 12 11 11 9 8 7 6 5 4 3 2 1 1 1 1 2 3 4 5 5 5 5 4 4 4 5 4 4 4 5 6 9 14 17 16 14 11 8 6 6 8 9 8 8 8 8 6 5 4 3 2 1 1 2 1 2 3 3 2 2 2 1 1
30 29 26 25 22 22 21 20 22 21 21 20 20 19 18 17 16 15 14 13 12 12 12 11 10 9 8 7 6 5 4 3 2 2 2 2 2 2 3 4 5 5 5 4 3 3 3 4 5 4 4 4 5 7 11 15 16 14 12 10 7 6 7 7 8 7 7 7 6 4 4 3 2 2 1 2 2 2 3 4 3 2 2 2 2
31 28 26 26 24 23 22 21 22 20 20 19 19 18 17 16 15 14 13 12 10 10 10 9 9 8 8 7 6 5 4 3 3 4 4 4 3 3 4 4 5 5 5 5 4 4 3 4 4 5 4 4 6 7 10 13 15 14 12 10 8 6 6 6 7 7 7 6 5 4 3 3 3 2 1 1 2 3 4 5 4 3 3 3 3
30 28 27 28 25 24 23 22 21 20 20 18 18 16 15 15 13 13 11 10 9 9 9 8 8 7 6 6 6 5 5 4 4 5 5 6 5 4 4 4 5 5 5 5 5 4 4 4 3 4 5 5 7 8 9 12 15 14 12 11 9 7 6 5 6 7 7 6 5 4 2 2 2 2 1 1 2 3 5 5 5 4 4 3 3
29 28 28 27 24 23 22 22 21 21 20 17 16 14 14 13 12 11 10 9 9 8 8 7 7 6 6 6 6 6 5 5 5 6 6 6 6 5 5 5 5 5 5 5 4 5 5 5 4 4 4 5 6 8 10 11 13 14 12 11 9 8 5 5 5 6 6 5 4 3 2 1 2 2 2 2 2 3 4 6 6 5 5 4 3
29 27 26 24 22 21 20 21 21 19 17 15 14 13 12 11 10 10 9 9 8 8 7 7 7 7 7 6 6 6 6 7 7 7 7 7 7 6 6 6 6 5 5 4 4 5 6 6 5 4 3 4 6 8 10 11 13 14 13 11 10 8 6 5 5 5 4 4 3 3 2 1 1 2 2 2 3 3 3 5 6 6 5 5 5
27 25 24 22 21 19 17 18 17 16 15 14 13 11 10 9 10 10 9 9 9 8 8 8 8 8 8 8 7 7 7 7 8 8 8 8 8 7 6 6 6 6 6 5 5 5 6 7 6 5 5 5 6 8 10 11 12 13 14 12 10 9 8 6 4 4 4 4 3 3 2 0 1 1 2 2 3 3 2 3 5 6 5 5 6
26 26 26 23 21 19 18 16 15 14 13 12 11 10 10 10 10 9 10 10 9 9 9 9 9 9 9 9 9 8 8 9 9 9 9 8 8 7 7 6 6 6 6 6 5 5 6 7 6 6 6 6 6 8 10 11 11 13 14 13 11 10 9 8 6 5 5 5 3 2 1 1 1 0 1 1 2 2 2 2 4 5 6 6 6
26 27 24 21 20 20 19 16 15 13 11 10 9 9 9 9 9 9 10 10 10 9 9 10 10 10 10 10 10 10 10 10 9 10 9 8 7 7 6 6 6 6 5 5 5 5 6 6 6 6 7 6 7 8 10 11 11 11 12 12 12 11 10 9 7 6 6 5 3 1 1 2 1 1 1 2 2 3 3 3 1 4 5 6 6
23 21 19 19 19 19 17 15 14 11 9 9 9 9 8 8 8 9 11 10 10 10 10 10 11 10 10 10 10 10 10 9 8 9 9 7 6 6 6 6 6 5 5 5 4 4 6 6 6 7 7 7 7 7 8 9 10 11 11 11 11 11 11 10 7 6 6 5 3 1 1 1 1 1 1 2 3 4 4 4 3 1 3 4 6
19 16 16 18 18 16 15 14 12 10 9 9 9 9 8 8 10 10 11 11 10 10 10 11 10 9 9 9 9 9 9 7 7 8 7 6 6 5 5 6 7 6 6 6 5 5 7 8 8 8 8 8 8 8 7 7 8 9 9 10 9 9 10 9 6 5 6 5 4 3 2 1 1 1 1 2 4 4 4 5 5 3 1 2 4
19 18 18 18 17 15 14 12 11 11 11 11 11 10 10 10 10 11 11 10 10 10 10 10 10 9 8 8 8 9 7 6 7 7 6 6 6 6 6 7 7 7 7 6 6 7 8 9 9 9 9 9 9 8 7 6 7 8 8 9 9 8 8 8 6 5 6 6 4 3 2 1 1 2 3 3 4 4 4 4 5 4 3 2 2
21 21 19 18 16 14 13 13 13 13 13 13 12 11 10 10 10 10 10 10 10 9 9 9 9 9 8 7 7 8 7 6 7 7 6 6 7 7 7 7 6 6 7 7 7 8 8 9 10 9 9 10 9 9 8 7 7 8 7 7 8 8 7 7 7 6 6 6 5 3 3 3 3 3 3 4 4 4 4 4 4 4 4 3 3
21 19 18 16 15 15 15 15 15 16 15 13 11 10 9 9 8 8 8 8 8 8 8 8 8 8 7 6 6 7 6 6 7 7 6 6 7 7 6 6 7 8 9 9 9 9 9 10 10 10 10 10 10 9 9 8 8 7 7 7 7 7 7 7 7 8 8 7 6 5 5 5 4 4 3 3 3 3 3 3 3 4 4 4 4
18 16 17 14 15 17 17 18 17 16 14 11 10 9 7 7 6 5 5 6 6 6 6 7 8 7 6 6 6 6 5 6 7 6 6 6 7 7 6 7 9 9 10 11 10 10 10 11 11 10 11 11 10 10 9 9 8 8 8 8 8 8 8 7 7 8 9 9 9 7 6 6 6 5 4 2 1 1 2 2 2 3 4 4 4
16 16 16 14 16 18 18 19 17 14 13 11 9 7 5 4 4 4 4 4 4 4 5 6 7 7 6 6 5 6 6 6 6 5 6 7 7 7 7 8 10 10 12 13 12 11 10 11 11 11 12 12 12 11 11 10 10 10 10 10 10 10 9 8 8 8 8 8 10 10 9 8 7 7 6 5 4 2 0 0 1 2 2 3 3
17 16 17 16 17 19 19 18 16 13 12 11 8 4 2 2 3 3 3 3 3 3 3 4 5 6 6 5 5 5 5 6 6 6 7 8 7 8 9 10 11 12 13 13 12 11 9 9 11 11 12 12 12 11 10 10 10 10 11 11 11 10 9 9 8 8 8 7 9 10 10 9 9 9 9 8 7 6 4 3 2 1 1 1 1
19 16 17 17 18 19 18 18 16 14 13 10 5 2 2 3 4 5 5 5 5 4 3 3 4 4 4 4 4 5 4 4 5 6 7 8 7 8 9 10 11 12 12 10 11 10 9 10 11 11 11 13 12 11 10 9 8 9 9 8 8 8 8 8 8 8 8 8 8 9 10 10 11 11 11 11 10 9 7 5 4 2 1 1 0
22 19 19 19 19 19 19 18 17 14 12 9 4 2 3 4 5 7 7 6 6 4 3 3 3 4 4 5 6 6 5 4 3 4 5 5 6 7 8 9 10 10 10 9 10 11 9 10 11 11 12 14 12 10 9 8 7 6 6 7 7 6 6 7 8 8 8 9 9 9 9 10 11 11 12 13 13 11 10 8 6 4 3 2 1
25 23 22 21 21 20 20 19 17 14 11 7 2 1 3 4 6 8 8 7 6 4 3 3 4 5 5 6 7 6 5 3 3 3 3 3 3 5 6 8 9 10 9 9 10 10 9 9 11 12 13 13 10 8 9 7 6 5 5 7 9 7 7 7 8 8 9 10 10 11 11 10 10 10 12 14 15 14 12 11 9 7 6 5 3
26 24 22 21 20 20 21 20 17 14 11 6 2 2 3 4 6 7 7 6 5 4 3 3 4 5 6 6 6 4 3 3 2 2 2 2 2 3 4 5 7 9 8 8 8 8 8 8 9 11 12 12 10 8 9 8 7 6 4 6 9 9 10 10 9 10 10 11 12 13 13 13 12 11 11 13 15 16 15 14 12 10 9 7 6
24 22 21 21 21 21 22 22 18 14 12 8 4 4 3 4 6 6 6 5 5 5 5 4 4 4 4 4 4 3 2 2 2 1 2 2 2 2 3 3 4 5 6 6 7 7 7 8 8 9 11 11 10 9 9 10 9 8 5 6 8 9 10 11 11 11 11 12 12 12 14 15 14 14 13 12 14 15 15 15 15 13 11 9 7
25 21 21 23 24 24 24 23 19 14 12 9 7 7 6 5 7 7 5 4 5 5 5 5 4 3 4 4 3 3 2 2 2 1 1 2 3 3 3 3 2 3 3 4 4 4 5 6 7 8 9 10 10 9 10 11 11 9 6 6 7 7 8 9 9 9 10 11 11 11 13 14 13 13 14 13 13 14 13 15 15 13 10 9 8
27 23 21 24 25 25 25 23 19 15 13 10 10 9 7 7 8 6 4 4 4 4 4 5 6 6 6 6 6 4 2 1 1 1 2 3 3 4 4 4 3 3 2 1 1 1 1 3 5 7 8 9 10 11 10 11 13 12 9 7 6 6 6 6 6 5 6 7 7 8 10 12 11 10 12 12 12 11 11 13 13 10 7 8 8
29 24 20 23 25 24 24 22 19 17 14 12 12 11 9 8 6 4 2 3 3 3 3 4 6 7 7 8 8 7 5 3 3 2 1 1 1 1 2 2 3 2 1 1 2 2 1 1 2 3 5 7 8 9 9 10 12 11 10 10 8 6 5 5 4 3 3 3 2 3 4 6 7 7 8 8 8 9 11 13 12 10 9 10 11
28 23 19 22 23 22 22 21 19 17 15 14 14 13 10 8 5 2 1 1 2 2 3 3 4 5 6 7 7 7 5 4 4 3 1 2 3 3 3 3 3 3 4 4 4 5 4 4 3 1 1 3 4 6 7 9 10 10 9 10 10 8 6 5 4 3 3 3 4 3 3 4 5 5 6 6 6 7 9 12 12 9 9 11 11
25 21 20 21 21 21 21 20 20 18 17 16 15 13 11 8 6 4 2 1 1 2 2 3 4 4 5 5 6 6 5 4 3 3 2 2 3 3 4 4 4 4 5 5 5 4 3 2 2 3 3 2 1 2 4 6 7 8 8 9 8 7 5 4 3 3 2 4 7 5 3 2 2 4 5 5 5 5 4 5 7 6 6 7 7
24 22 22 23 23 23 22 21 20 19 19 18 16 14 11 8 6 4 3 2 3 3 3 4 4 4 4 5 5 5 5 4 3 3 3 2 2 3 4 4 3 3 3 3 2 2 2 2 2 2 4 5 4 3 2 2 2 4 5 7 8 6 6 5 3 3 3 6 10 8 5 3 1 1 1 2 2 4 3 2 4 5 5 4 4
25 26 27 26 24 23 23 23 22 21 21 19 16 15 12 9 6 4 3 4 4 4 4 4 4 4 4 5 5 5 5 5 4 4 3 3 3 4 5 4 2 1 1 1 2 2 3 2 1 3 5 6 7 7 6 5 4 2 1 2 5 4 5 5 3 2 2 5 10 12 8 5 5 6 4 2 1 1 2 3 4 5 6 6 6
29 31 31 28 25 24 25 26 24 23 23 20 18 16 13 9 7 4 3 5 5 4 4 4 4 4 5 5 4 4 4 4 4 3 3 3 4 5 6 4 3 3 3 3 3 2 1 2 4 6 6 7 7 8 7 8 7 5 6 5 3 2 3 5 5 4 3 5 8 10 9 8 9 9 9 7 5 3 2 3 4 4 5 6 7
Wind_Direction
167 170 172 170 172 173 174 172 172 173 171 170 165 158 151 146 141 139 137 137 137 139 141 143 145 146 146 145 142 140 140 140 139 139 140 139 138 138 139 142 145 146 143 138 137 137 140 147 154 152 145 137 133 132 127 122 114 106 108 103 98 94 87 82 79 78 76 74 71 70 72 74 77 79 79 78 78 80 83 85 84 82 80 76 71
165 168 172 171 173 173 175 174 174 173 171 170 165 161 155 150 145 142 140 137 136 135 136 139 141 142 142 141 138 136 136 135 135 137 139 140 139 140 142 145 146 149 150 141 142 141 138 142 147 152 149 144 139 137 132 126 115 111 112 106 102 98 92 87 84 82 78 76 74 72 73 74 79 82 80 78 78 78 80 83 82 81 79 76 72
163 167 172 172 172 172 175 176 176 175 172 169 166 164 158 154 149 146 144 141 139 137 136 137 137 137 137 135 133 133 133 132 134 135 136 137 137 141 143 143 143 146 144 137 142 141 138 142 144 146 149 148 144 141 137 128 118 115 113 108 106 102 96 92 88 84 80 77 75 73 73 75 78 81 82 79 78 79 79 81 82 81 79 76 73
166 166 170 172 170 171 176 177 177 177 173 169 167 165 160 157 153 150 147 145 144 142 140 137 136 134 133 131 132 132 133 134 134 133 131 129 129 134 138 138 136 136 137 138 142 144 141 141 143 144 146 147 147 146 141 132 123 120 115 111 108 105 101 96 91 87 82 78 76 74 73 75 77 79 81 81 80 81 80 79 79 81 80 77 73
168 166 169 171 170 171 177 178 178 179 175 170 167 165 162 159 155 152 150 150 150 149 146 142 141 138 136 135 133 133 132 132 131 129 127 124 123 124 129 131 127 120 124 134 136 138 142 140 138 139 144 148 149 149 145 137 131 127 121 115 111 107 103 100 95 90 86 81 78 76 74 74 76 76 78 80 81 82 81 77 77 79 80 78 73
168 167 169 171 170 173 178 179 179 180 177 172 168 165 162 160 158 155 153 154 156 155 152 149 147 143 141 138 136 134 131 131 130 129 126 123 121 119 119 121 121 109 100 111 124 127 129 132 133 135 142 147 148 151 149 143 139 135 128 122 115 110 106 103 99 93 89 85 80 77 73 72 73 74 75 77 79 81 80 78 78 79 80 79 76
169 168 170 172 172 175 178 178 178 180 178 173 169 166 163 161 159 157 154 154 157 159 156 153 150 146 143 140 139 137 135 134 133 131 128 125 122 123 120 118 121 112 87 80 95 117 123 128 135 138 140 143 148 153 151 149 147 140 133 128 121 115 111 108 103 97 91 85 81 77 74 70 69 71 73 72 73 77 80 80 79 79 81 80 78
170 169 171 173 175 177 178 175 174 177 177 174 170 168 167 164 162 160 156 153 155 158 159 156 153 150 147 145 143 141 141 139 136 134 131 125 120 122 123 121 121 117 87 65 64 96 121 126 134 141 139 138 144 151 152 155 155 145 137 132 126 122 117 113 108 101 93 86 83 79 75 70 65 65 68 68 69 74 78 80 81 81 81 80 79
169 170 172 174 176 176 175 172 172 175 176 174 172 170 170 167 166 164 160 158 157 158 161 161 159 155 152 151 149 145 143 141 139 138 133 126 117 118 122 119 117 114 90 60 61 86 111 117 126 136 133 134 142 150 156 161 160 152 144 135 132 129 122 116 111 104 95 87 83 79 76 72 66 62 62 66 70 73 73 76 81 82 82 80 78
170 171 173 175 175 174 171 169 172 173 173 173 172 172 172 170 171 171 168 167 164 163 164 166 165 161 156 153 153 149 146 143 142 141 137 130 120 119 121 116 112 109 87 61 68 88 104 113 123 134 137 144 153 159 162 166 165 162 153 139 139 137 127 119 111 104 97 89 83 79 77 75 69 65 61 63 69 73 74 72 76 80 81 80 78
170 172 173 174 172 170 167 166 170 172 172 172 172 173 173 173 174 174 173 173 170 170 169 168 168 164 159 155 155 154 150 147 144 141 139 134 127 125 123 120 117 109 91 79 80 95 106 113 124 139 150 160 163 166 167 171 170 173 165 141 143 145 133 124 115 106 97 90 86 82 80 77 72 69 61 60 65 71 75 75 77 79 79 79 78
172 172 170 169 166 166 165 163 166 169 171 172 172 173 172 174 175 173 175 176 174 172 171 168 166 164 161 159 158 155 153 150 146 141 138 135 131 128 127 126 121 109 97 97 97 104 112 118 130 149 163 166 165 169 169 175 175 181 180 141 141 147 136 127 120 112 102 94 90 88 83 77 73 68 60 55 59 64 71 75 80 80 78 79 78
172 171 167 163 162 163 164 161 162 166 171 172 174 174 172 174 174 174 176 177 176 172 170 169 167 166 162 159 158 156 155 154 149 142 137 132 129 128 127 125 118 111 102 104 102 106 115 123 138 159 171 171 167 171 172 177 180 188 196 143 138 147 138 129 121 114 108 101 95 94 88 79 73 66 59 53 50 55 63 71 76 80 82 81 80
172 169 164 160 158 159 162 160 160 164 169 173 175 174 173 175 175 176 177 178 177 171 170 169 167 164 161 158 158 159 159 158 153 143 136 133 132 129 123 121 116 113 112 111 107 107 116 127 145 163 177 183 177 175 175 179 184 192 206 153 137 145 142 133 120 114 112 108 101 98 94 85 77 68 60 52 47 48 53 61 68 77 86 86 83
173 167 164 161 158 160 162 161 162 164 167 171 174 174 173 174 176 177 179 179 175 170 168 168 166 164 163 160 160 159 158 155 149 145 141 141 140 134 125 122 120 116 120 124 116 108 117 130 151 168 178 189 188 183 179 181 187 196 213 174 139 142 143 137 120 116 113 109 103 97 93 85 77 68 58 51 51 49 46 50 56 68 84 88 86
172 168 165 161 161 164 164 164 167 167 165 168 172 172 171 172 174 176 177 177 171 169 169 169 169 167 165 160 156 154 152 150 148 150 150 150 146 139 131 128 128 124 128 132 121 108 114 130 154 175 181 189 192 190 185 184 188 199 216 195 151 145 142 141 128 119 115 110 104 98 93 87 79 67 57 50 49 49 47 46 44 50 70 84 88
172 170 166 165 166 164 163 165 168 167 164 165 170 168 165 165 169 174 173 173 170 170 171 169 168 164 160 155 152 150 150 153 154 159 160 161 156 149 142 138 139 135 138 134 124 111 107 120 151 174 183 190 193 193 190 188 193 201 215 209 166 153 145 142 136 125 119 114 107 100 95 92 86 74 61 52 46 45 49 49 44 41 54 74 85
172 171 170 172 169 163 160 161 161 161 161 162 165 161 159 162 167 171 168 169 170 169 169 167 165 161 158 156 153 152 153 158 161 168 172 177 175 167 161 157 159 151 148 140 132 123 106 108 140 169 180 188 194 195 193 190 196 205 214 215 181 158 150 146 138 129 122 115 109 102 97 95 87 73 60 54 47 42 46 51 53 44 45 63 79
174 174 175 177 171 165 162 160 160 158 160 160 158 157 161 166 166 167 164 166 168 167 167 165 164 162 161 159 157 156 157 162 165 171 175 185 186 179 177 175 173 165 157 150 142 134 117 107 124 159 175 184 192 196 196 193 196 206 214 216 195 164 154 151 140 131 123 112 108 107 105 104 88 59 40 36 36 39 39 45 59 57 45 58 74
177 177 179 179 173 169 164 161 163 160 161 160 159 162 165 166 164 165 165 167 167 165 165 163 164 164 165 163 161 160 159 165 166 170 173 180 183 182 188 183 179 173 163 157 148 139 129 113 117 144 168 182 192 196 198 196 197 205 213 215 196 164 155 153 145 134 124 113 108 106 107 112 102 57 14 354 350 4 9 21 50 75 52 57 73
179 180 180 179 174 170 167 165 165 163 163 162 164 167 166 166 164 166 168 170 168 165 164 163 166 166 166 164 163 163 163 168 160 163 172 173 179 179 190 187 181 179 172 166 154 142 135 124 114 127 155 180 193 199 199 198 199 205 212 213 191 159 153 153 149 140 129 118 110 103 99 98 104 82 342 320 320 312 287 300 319 218 161 71 86
180 180 180 179 174 170 171 169 167 166 167 166 168 170 169 169 168 170 172 174 171 169 169 168 171 168 166 168 170 173 174 182 172 184 238 241 207 182 190 191 184 183 180 174 163 154 141 134 125 122 144 173 193 202 203 200 199 204 212 212 192 162 156 156 153 148 137 126 117 105 91 74 69 56 322 294 286 283 262 258 267 234 221 200 163
183 182 182 181 174 172 174 172 171 170 170 170 172 175 174 172 175 177 177 179 177 173 176 175 174 173 175 179 182 186 192 205 219 240 261 268 261 223 201 195 187 185 184 183 179 177 159 143 140 138 146 169 189 202 206 203 200 202 210 213 202 178 166 163 162 160 149 137 128 110 88 62 37 26 345 298 276 260 252 248 253 247 243 232 209
186 185 184 182 177 175 175 173 174 172 172 175 176 179 178 177 181 183 184 188 186 181 184 183 181 182 185 190 193 197 208 225 246 259 273 280 277 254 225 210 193 190 188 188 191 191 189 170 152 153 161 177 191 199 205 205 202 202 207 213 209 196 182 174 173 174 166 153 140 121 94 58 27 12 355 316 282 259 248 244 247 252 253 243 220
188 188 186 183 179 178 177 174 174 173 174 179 180 180 181 184 186 188 192 196 198 193 193 195 193 194 195 201 204 208 221 236 257 264 276 284 282 267 244 228 204 199 195 191 196 200 205 196 177 172 175 187 196 199 204 206 205 204 205 209 210 204 188 175 176 180 179 168 150 133 110 53 22 5 345 321 287 266 251 242 241 244 251 250 227
190 190 187 183 181 179 179 177 176 176 177 178 180 182 185 190 192 196 201 204 208 206 206 209 208 210 211 217 216 218 230 242 255 263 274 281 283 274 252 235 218 210 204 201 207 211 213 207 209 205 187 195 203 204 206 207 208 207 205 206 209 208 193 174 171 177 181 174 156 139 113 44 16 3 347 328 309 276 255 242 238 239 243 248 240
192 192 186 181 181 182 184 184 181 178 176 177 181 186 191 195 199 205 211 214 217 218 221 224 225 228 227 232 231 228 237 247 256 264 274 278 279 276 257 239 233 227 220 223 224 225 224 218 225 229 211 206 207 208 208 205 207 208 207 205 206 208 202 183 171 175 186 187 171 156 133 57 12 2 353 342 332 303 271 248 242 243 239 245 253
193 193 187 182 183 187 191 190 186 179 176 181 184 189 197 203 210 215 221 224 227 228 231 234 235 237 237 241 242 242 246 255 262 267 273 274 274 272 257 241 240 234 230 235 230 231 232 226 235 237 227 218 209 209 208 204 204 206 207 205 204 210 212 203 185 184 200 208 199 174 154 70 346 360 2 358 353 337 306 269 253 248 238 242 256
194 193 190 185 182 185 188 190 191 187 183 187 188 196 206 214 221 228 233 237 238 239 241 242 245 244 245 249 251 253 253 256 261 266 269 270 272 268 254 240 238 234 229 235 231 228 227 228 240 239 231 223 209 206 206 206 205 205 207 207 207 211 217 215 202 196 207 217 221 189 150 330 295 260 31 42 29 27 15 325 262 245 238 239 250
196 193 188 182 181 183 185 191 198 195 192 195 199 207 215 221 227 233 237 241 242 245 249 251 254 252 252 255 256 256 253 251 252 258 264 265 269 266 257 246 243 240 237 241 234 224 224 229 240 235 228 221 208 202 204 208 211 210 208 208 210 212 217 221 216 207 210 219 234 267 338 327 302 251 44 61 60 53 43 20 299 242 239 242 247
198 195 185 182 185 186 186 194 202 201 198 199 204 209 215 220 224 230 234 237 239 244 249 251 254 255 255 253 253 254 250 250 250 255 262 264 268 270 267 260 253 251 250 250 239 226 226 232 242 235 226 220 207 196 199 206 216 220 213 209 211 214 221 227 227 212 209 217 217 214 252 349 338 259 44 57 59 55 53 45 28 251 238 253 254
189 187 189 192 192 190 191 196 198 198 196 196 197 199 205 213 219 223 228 231 233 239 244 248 252 255 254 249 248 251 248 248 249 251 257 261 258 261 269 262 254 250 250 251 242 234 229 230 236 234 225 219 205 193 195 203 212 216 214 212 209 209 214 218 216 201 199 199 192 195 209 57 43 174 105 75 67 59 55 54 46 49 43 300 277
170 173 185 197 198 194 191 188 189 189 190 193 191 191 198 207 213 217 222 226 228 234 239 247 254 252 251 248 248 254 255 247 244 243 244 250 247 244 251 251 246 240 240 245 240 234 230 229 231 228 222 216 207 200 200 203 207 208 208 212 210 205 203 202 202 200 194 189 184 199 212 177 119 136 121 98 83 75 67 67 63 58 49 19 356
170 173 182 195 197 190 183 181 184 186 188 189 185 182 189 199 207 212 217 221 226 233 239 247 253 253 255 256 256 262 263 247 239 238 235 240 242 243 249 249 247 238 235 239 239 235 229 230 230 225 218 216 213 210 208 208 211 211 211 212 212 212 212 213 219 219 210 202 201 207 213 199 158 136 118 95 79 76 77 83 84 78 67 55 55
176 176 183 191 190 181 179 180 181 184 185 181 174 173 180 190 201 209 212 218 225 232 238 241 245 253 260 261 260 260 259 248 238 235 238 240 240 246 255 253 245 240 238 236 238 240 233 230 231 224 218 219 219 217 217 219 223 226 226 225 226 230 234 237 240 237 233 231 226 220 220 211 184 161 132 101 69 54 62 85 100 98 91 81 75
174 176 184 181 182 182 180 179 179 181 179 172 167 168 174 186 197 204 203 208 215 224 234 237 240 245 250 254 258 257 253 252 247 238 241 244 242 242 244 243 238 238 239 233 234 238 233 229 227 223 220 221 224 223 226 231 236 242 243 245 250 254 256 255 253 249 247 246 241 235 233 226 205 189 182 171 127 40 34 74 111 112 112 109 102
171 173 181 176 180 184 181 181 179 176 175 171 169 164 171 190 201 204 201 210 217 234 242 242 246 246 249 258 266 265 258 255 253 245 243 242 241 239 234 236 235 235 238 236 240 244 236 229 228 225 222 221 224 227 230 237 244 252 257 261 265 270 271 267 263 259 255 248 243 242 244 241 221 204 202 202 200 198 235 219 151 129 132 137 130
181 177 183 184 185 182 182 183 178 178 179 176 171 165 195 224 229 232 239 263 279 283 269 253 254 258 267 280 286 282 276 270 261 250 248 246 246 242 233 232 234 238 243 245 252 257 250 242 234 227 226 224 224 227 232 242 252 259 262 263 267 272 273 270 265 261 261 253 244 240 241 242 233 222 217 215 215 217 220 224 226 231 193 168 145
189 188 191 192 191 185 184 186 182 185 185 180 179 196 272 274 271 282 292 303 310 305 291 275 271 287 304 315 321 317 315 298 273 253 248 247 243 240 232 231 236 243 247 251 258 260 258 255 243 233 233 230 225 227 235 244 256 264 260 250 251 260 261 263 260 255 258 258 252 245 241 241 239 234 229 226 225 224 223 223 227 237 243 241 335
190 192 197 198 195 188 186 189 188 192 192 185 187 232 281 297 305 310 311 313 319 317 308 297 299 317 328 334 332 328 330 323 300 279 263 252 242 239 235 233 236 241 241 242 250 251 248 255 256 250 247 241 233 228 231 240 255 263 252 228 220 229 240 250 254 256 262 264 266 260 250 243 241 239 237 233 229 226 225 223 224 229 237 250 289
194 196 201 200 197 192 191 193 193 198 201 190 186 249 289 318 325 326 320 315 319 319 315 306 305 311 312 320 324 322 331 339 335 320 299 287 256 240 239 235 233 235 231 228 236 240 237 243 249 250 250 251 247 234 226 229 243 253 242 223 218 221 231 242 250 257 263 265 268 264 256 248 242 239 240 238 232 228 224 221 222 226 229 235 247
199 201 203 201 200 197 195 198 200 203 203 194 192 243 283 307 316 323 318 311 312 310 301 295 298 298 301 310 313 316 329 341 348 341 318 300 257 235 234 232 232 235 231 224 224 229 231 235 239 242 249 254 255 243 229 223 232 241 238 226 226 230 236 244 250 254 257 259 263 264 259 248 239 239 243 242 238 233 230 225 222 222 226 231 236
204 206 208 207 206 201 199 204 208 206 201 193 190 210 243 281 291 299 301 301 307 308 300 297 297 293 307 316 311 310 309 322 335 333 309 277 259 250 235 230 230 230 227 221 219 221 228 238 243 243 246 252 253 246 231 224 232 240 235 225 229 234 240 245 248 251 254 256 258 261 258 250 248 251 248 245 245 241 238 234 228 224 227 233 235
207 208 211 212 209 205 204 207 210 207 203 196 192 204 221 248 263 268 275 287 298 307 308 310 316 319 339 349 336 315 284 291 308 282 266 256 253 254 247 241 227 218 218 220 221 220 222 236 247 244 241 244 246 244 232 225 230 234 230 222 221 228 240 245 243 244 249 254 257 258 258 255 255 256 249 247 250 248 249 247 241 233 224 226 231
207 209 212 210 207 205 205 208 208 206 208 200 193 203 215 229 245 253 260 277 288 302 316 323 329 333 341 348 345 343 339 332 333 276 253 258 257 249 249 243 231 226 219 205 183 186 209 229 243 245 238 237 237 237 233 228 231 230 223 217 214 219 233 238 238 242 245 249 254 256 258 256 254 255 253 257 260 255 255 256 255 255 240 234 240
209 212 213 206 203 204 204 206 205 207 212 203 192 200 211 220 234 251 275 298 306 310 327 330 328 327 334 339 340 345 359 13 19 21 289 302 333 246 232 214 207 207 173 108 89 98 105 158 226 244 238 237 233 231 228 229 235 233 226 228 229 226 227 233 238 240 229 210 208 236 246 245 244 248 255 264 270 263 256 252 253 255 247 244 248
212 214 212 204 203 203 202 204 206 211 215 206 193 197 207 210 209 208 252 331 333 325 327 325 319 319 326 334 336 338 348 1 11 24 38 41 56 82 97 111 117 110 107 99 97 104 104 103 87 57 232 236 233 231 225 226 235 234 230 233 234 233 231 237 242 228 211 171 146 172 194 206 224 233 244 251 254 253 251 248 243 241 244 246 245
214 217 216 210 206 204 204 208 211 216 218 209 197 197 205 205 197 192 190 243 290 310 313 311 312 312 318 331 333 330 336 351 12 31 55 59 60 77 92 100 104 104 104 98 96 94 85 70 38 34 54 83 160 218 218 222 233 232 229 230 228 226 209 203 212 198 186 123 119 144 147 131 219 241 251 250 242 238 235 229 223 224 240 246 239
215 217 214 207 202 201 207 214 217 220 219 210 199 201 207 202 198 199 202 241 266 284 297 295 302 311 318 330 331 327 331 340 7 45 77 79 60 71 83 95 107 116 108 79 37 5 346 337 351 40 72 80 85 93 120 158 207 221 231 230 218 191 156 157 161 164 162 112 107 113 102 88 92 38 300 259 242 239 238 213 205 215 236 250 253
213 211 207 203 201 205 214 221 225 223 217 208 199 203 207 200 197 204 228 263 278 293 295 286 295 314 321 325 329 333 337 337 357 48 80 76 60 54 48 50 78 119 122 26 345 326 305 294 153 121 103 93 90 89 92 92 94 101 61 214 201 180 155 154 130 98 126 118 113 113 108 104 96 77 65 62 39 295 279 266 245 249 261 269 271
210 208 208 207 208 215 221 224 227 221 213 205 199 203 207 201 199 207 249 278 292 299 288 284 305 325 322 324 334 344 352 349 354 37 64 56 39 27 22 31 65 101 106 95 86 73 69 112 127 126 117 108 98 92 94 93 89 81 70 80 112 96 78 95 95 89 98 114 123 124 114 99 96 89 81 75 63 35 344 289 266 265 270 272 270